KN4RPA Weather Reports


time (UTC)temp
F
wind
direction
speed
knots
gust
knots
rain 1hr
in
rain 24hr
in
rain mn
in
humidity
%
barometer
mb
20260502163017 56 331 0.9 7.0 0.00 0.00 0.00 38 1013.1
20260502161510 58 233 0.0 3.5 0.00 0.00 0.00 40 1013.0
20260502151515 54 36 0.0 2.6 0.00 0.00 0.00 47 1013.4
20260502123043 49 345 0.9 5.2 0.00 0.00 0.00 57 1013.1
20260502121543 49 20 1.7 11.3 0.00 0.00 0.00 58 1013.1
20260502114537 49 336 0.0 4.3 0.00 0.00 0.00 60 1013.0
20260502113046 49 360 0.0 3.5 0.00 0.00 0.00 61 1013.1
20260502111534 49 34 0.0 4.3 0.00 0.00 0.00 62 1013.0
20260502110035 49 52 0.9 7.8 0.00 0.00 0.00 62 1012.9
20260502104525 49 24 0.0 5.2 0.00 0.00 0.00 63 1012.6
20260502103023 50 317 0.0 5.2 0.00 0.00 0.00 64 1012.5
20260502101524 50 341 0.9 7.0 0.00 0.00 0.00 65 1012.3
20260502091515 51 27 0.0 2.6 0.00 0.00 0.00 69 1011.4
20260502071505 53 154 0.0 0.0 0.00 0.00 0.00 70 1010.9
20260502070007 53 154 0.0 0.0 0.00 0.00 0.00 69 1010.9
20260502064501 53 154 0.0 0.0 0.00 0.00 0.00 68 1011.0
20260502063102 54 154 0.0 0.0 0.00 0.00 0.00 67 1011.1
20260502061559 55 154 0.0 0.0 0.00 0.00 0.00 66 1011.2
20260502060056 55 154 0.0 0.9 0.00 0.00 0.00 65 1011.6
20260502054559 55 154 0.0 0.0 0.00 0.00 0.00 65 1011.7
20260502053053 56 154 0.0 0.9 0.00 0.00 0.00 63 1011.6
20260502051553 56 154 0.0 0.9 0.00 0.00 0.00 62 1011.5
20260502050054 56 154 0.0 0.0 0.00 0.00 0.00 61 1011.3
20260502044552 56 154 0.0 2.6 0.00 0.00 0.00 59 1011.3
20260502043050 55 161 0.0 0.0 0.00 0.00 0.00 58 1011.4
20260502041557 55 161 0.0 2.6 0.00 0.00 0.00 58 1011.5
20260502040047 55 161 0.0 2.6 0.00 0.00 0.00 57 1011.1
20260502034547 55 161 0.0 0.9 0.00 0.00 0.00 56 1010.6
20260502033048 55 161 0.0 1.7 0.00 0.00 0.00 55 1010.2
20260502031552 55 161 0.0 0.0 0.00 0.00 0.00 55 1010.1
20260502030050 55 161 0.0 0.0 0.00 0.00 0.00 55 1010.0
20260502024602 56 161 0.0 0.0 0.00 0.00 0.00 53 1009.9
20260502023103 56 161 0.0 0.0 0.00 0.00 0.00 52 1009.7
20260502021544 56 161 0.0 4.3 0.00 0.00 0.00 52 1009.9
20260502020044 56 161 0.0 2.6 0.00 0.00 0.00 52 1009.9
20260502014543 57 161 0.0 1.7 0.00 0.00 0.00 49 1009.7
20260502013043 58 161 0.0 0.0 0.00 0.00 0.00 49 1009.7
20260502011543 59 161 0.0 0.0 0.00 0.00 0.00 44 1009.6
20260502010143 60 161 0.0 0.0 0.00 0.00 0.00 42 1009.4
20260502004541 61 161 0.0 0.0 0.00 0.00 0.00 39 1008.9
20260502003040 62 161 0.0 0.0 0.00 0.00 0.00 39 1008.6
20260502001540 62 161 0.0 0.9 0.00 0.00 0.00 38 1008.7
20260502000059 63 161 0.0 0.0 0.00 0.00 0.00 37 1008.8
20260501234539 64 161 0.0 2.6 0.00 0.00 0.00 34 1008.6
20260501233038 65 161 0.0 0.9 0.00 0.00 0.00 33 1008.5
20260501231537 65 161 0.0 4.3 0.00 0.00 0.00 33 1008.4
20260501230136 66 161 0.0 2.6 0.00 0.00 0.00 31 1008.6
20260501224557 66 161 0.9 2.6 0.00 0.00 0.00 31 1008.7
20260501223035 66 162 0.0 5.2 0.00 0.00 0.00 31 1008.7
20260501221533 66 161 0.0 7.0 0.00 0.00 0.00 29 1008.9
20260501220039 66 152 0.9 2.6 0.00 0.00 0.00 28 1008.9
20260501214530 66 175 2.6 7.0 0.00 0.00 0.00 27 1009.2
20260501213029 67 158 0.0 6.1 0.00 0.00 0.00 27 1009.2
20260501211530 67 159 0.0 7.0 0.00 0.00 0.00 27 1009.3
20260501210029 67 166 0.0 7.0 0.00 0.00 0.00 27 1009.3
20260501204529 67 164 0.0 7.0 0.00 0.00 0.00 28 1009.2
20260501203026 67 156 0.0 5.2 0.00 0.00 0.00 28 1009.3
20260501201526 67 155 0.0 6.1 0.00 0.00 0.00 28 1009.7
20260501200034 66 165 0.0 3.5 0.00 0.00 0.00 28 1010.0
20260501194522 66 161 0.0 6.1 0.00 0.00 0.00 28 1010.3
20260501193018 66 158 0.9 7.0 0.00 0.00 0.00 28 1010.5
20260501191517 66 160 0.9 6.1 0.00 0.00 0.00 29 1010.8
20260501190023 66 161 0.0 8.7 0.00 0.00 0.00 30 1011.2
20260501184512 65 165 0.0 4.3 0.00 0.00 0.00 29 1011.4
20260501183020 65 158 1.7 7.8 0.00 0.00 0.00 30 1011.5
20260501181511 65 166 2.6 7.0 0.00 0.00 0.00 30 1011.5
20260501180008 65 167 0.0 4.3 0.00 0.00 0.00 31 1011.8
20260501174509 64 147 0.0 3.5 0.00 0.00 0.00 31 1012.1
20260501173004 63 162 0.0 2.6 0.00 0.00 0.00 33 1012.1
20260501171505 63 162 0.0 4.3 0.00 0.00 0.00 34 1012.4